This demonstration page uses our WeatherBlox Daily Observations layout. Learn more.

Left ArrowRight Arrow

39.01783, -85.05884

Hourly Observations for November 11, 2018

Temp ( °F °C ) Dew Point ( °F °C ) Humidity (%) Winds ( mph kmh ) Pressure ( in mb ) Visibility ( mi km ) Precip ( " mm )
12:52 am 00:52 Clear 27 -2.8 17 -8.3 66 66 ESE 5 7 30.39 1029 10 16 0.00 0.00
1:52 am 01:52 Clear 26 -3.3 17 -8.3 69 69 ESE 5 7 30.38 1029 10 16 0.00 0.00
2:52 am 02:52 Clear 26 -3.3 17 -8.3 69 69 E 3 6 30.39 1029 10 16 0.00 0.00
3:52 am 03:52 Clear 26 -3.3 17 -8.3 69 69 ENE 3 6 30.40 1029 10 16 0.00 0.00
4:52 am 04:52 Clear 24 -4.4 17 -8.3 75 75 E 6 9 30.37 1029 10 16 0.00 0.00
5:52 am 05:52 Clear 24 -4.4 18 -7.8 77 77 Calm 30.38 1029 10 16 0.00 0.00
6:52 am 06:52 Clear 24 -4.4 18 -7.8 77 77 ESE 3 6 30.40 1029 10 16 0.00 0.00
7:52 am 07:52 Mostly Sunny 24 -4.4 19 -7.2 81 81 SSE 5 7 30.39 1029 10 16 0.00 0.00
8:52 am 08:52 Mostly Sunny 29 -1.7 21 -6.1 72 72 SE 10 17 30.37 1028 10 16 0.00 0.00
9:52 am 09:52 Partly Cloudy 32 0 22 -5.6 66 66 SSE 8 13 30.39 1029 10 16 0.00 0.00
10:52 am 10:52 Mostly Cloudy 35 1.7 21 -6.1 57 57 SSE 12 19 30.38 1029 10 16 0.00 0.00
11:52 am 11:52 Partly Cloudy 38 3.3 20 -6.7 48 48 SSE 10 17 30.35 1028 10 16 0.00 0.00
12:52 pm 12:52 Partly Cloudy 41 5 19 -7.2 41 41 SE 7 11 30.33 1027 10 16 0.00 0.00
1:52 pm 13:52 Partly Cloudy 43 6.1 20 -6.7 40 40 VRB 5 7 30.30 1026 10 16 0.00 0.00
2:52 pm 14:52 Mostly Cloudy 44 6.7 18 -7.8 35 35 SSE 7 11 30.29 1026 10 16 0.00 0.00
3:52 pm 15:52 Mostly Cloudy 42 5.6 18 -7.8 38 38 SSW 7 11 30.28 1026 10 16 0.00 0.00
4:52 pm 16:52 Mostly Cloudy 43 6.1 20 -6.7 40 40 SSE 5 7 30.28 1025 10 16 0.00 0.00
5:52 pm 17:52 Cloudy 42 5.6 20 -6.7 41 41 SSE 7 11 30.27 1025 10 16 0.00 0.00
6:52 pm 18:52 Cloudy 40 4.4 21 -6.1 47 47 E 3 6 30.28 1026 10 16 0.00 0.00
7:52 pm 19:52 Partly Cloudy 39 3.9 22 -5.6 50 50 Calm 30.28 1026 10 16 0.00 0.00
8:52 pm 20:52 Mostly Clear 34 1.1 24 -4.4 67 67 Calm 30.29 1026 10 16 0.00 0.00
9:52 pm 21:52 Mostly Cloudy 30 -1.1 23 -5 75 75 SE 3 6 30.29 1026 10 16 0.00 0.00
10:52 pm 22:52 Partly Cloudy 37 2.8 23 -5 57 57 E 5 7 30.29 1026 10 16 0.00 0.00
11:52 pm 23:52 Mostly Clear 36 2.2 23 -5 59 59 E 3 6 30.28 1025 10 16 0.00 0.00

Powered by AerisWeather